Location: Elaine Barite Prospect
(34.1431°N, 106.7922°W)
Time: 11:19:58
(UTC+00:00)

NOSS 3-1 (C) - Pass Details

Date: 13 December 2025
Orbit: 618 x 1583 km, 63.4° (Epoch: 10 January)

Event Time Altitude Azimuth Distance (km) Brightness Sun altitude
Exits shadow 12:23:49 26° 313° (NW) 2,308 4.9 -20.2°
Maximum altitude 12:28:39 60° 244° (WSW) 1,583 4.3 -19.2°
Drops below altitude 10° 12:37:48 10° 167° (SSE) 3,724 6.9 -17.4°
Sets 12:41:01 0° 164° (SSE) 4,744 7.5 -16.8°
